When you browse on this site, cookies collect data to enhance your experience and personalize the content and advertising you see.
Visit our Privacy Policy to learn more. By continuing to use the site, you agree to this use of cookies and data.

Hourly Weather Naftalan

Today, 2 July, Thursday

Time Temperature Precipitation Wind Pressure Humidity
00:00 +25°C° 0 mm 2 mps 762 mmHg 66%
01:00 +24°C° 0 mm 2 mps 762 mmHg 67%
02:00 +24°C° 0 mm 1 mps 762 mmHg 67%
03:00 +24°C° 0 mm 1 mps 762 mmHg 68%
04:00 +25°C° 0 mm 2 mps 762 mmHg 65%
05:00 +25°C° 0 mm 2 mps 762 mmHg 63%
06:00 +26°C° 0 mm 2 mps 763 mmHg 61%
07:00 +27°C° 0 mm 2 mps 763 mmHg 57%
08:00 +27°C° 0 mm 2 mps 763 mmHg 53%
09:00 +28°C° 0 mm 2 mps 763 mmHg 49%
10:00 +29°C° 0 mm 2 mps 763 mmHg 47%
11:00 +30°C° 0 mm 3 mps 763 mmHg 45%
12:00 +30°C° 0 mm 3 mps 763 mmHg 43%
13:00 +30°C° 0 mm 4 mps 762 mmHg 43%
14:00 +30°C° 0 mm 4 mps 762 mmHg 43%
15:00 +30°C° 0 mm 5 mps 762 mmHg 43%
16:00 +29°C° 0 mm 4 mps 762 mmHg 45%
17:00 +29°C° 0 mm 4 mps 762 mmHg 48%
18:00 +28°C° 0 mm 4 mps 762 mmHg 50%
19:00 +27°C° 0 mm 4 mps 762 mmHg 54%
20:00 +26°C° 0 mm 3 mps 762 mmHg 58%
21:00 +25°C° 0 mm 2 mps 763 mmHg 62%
22:00 +25°C° 0 mm 2 mps 763 mmHg 62%
23:00 +25°C° 0 mm 2 mps 762 mmHg 63%

Tomorrow, 3 July, Friday

Time Temperature Precipitation Wind Pressure Humidity
00:00 +24°C° 0 mm 2 mps 762 mmHg 63%
01:00 +24°C° 0 mm 2 mps 762 mmHg 64%
02:00 +24°C° 0 mm 2 mps 762 mmHg 65%
03:00 +24°C° 0 mm 2 mps 762 mmHg 66%
04:00 +25°C° 0 mm 1 mps 762 mmHg 62%
05:00 +25°C° 0 mm 1 mps 762 mmHg 59%
06:00 +26°C° 0 mm 1 mps 762 mmHg 56%
07:00 +28°C° 0 mm 1 mps 762 mmHg 50%
08:00 +29°C° 0 mm 1 mps 762 mmHg 45%
09:00 +31°C° 0 mm 1 mps 762 mmHg 40%
10:00 +32°C° 0 mm 2 mps 762 mmHg 38%
11:00 +33°C° 0 mm 3 mps 762 mmHg 36%
12:00 +34°C° 0 mm 4 mps 762 mmHg 35%
13:00 +34°C° 0 mm 4 mps 762 mmHg 35%
14:00 +34°C° 0 mm 4 mps 761 mmHg 35%
15:00 +34°C° 0 mm 5 mps 761 mmHg 35%
16:00 +33°C° 0 mm 4 mps 761 mmHg 38%
17:00 +32°C° 0 mm 4 mps 761 mmHg 41%
18:00 +30°C° 0 mm 4 mps 761 mmHg 44%
19:00 +29°C° 0 mm 3 mps 761 mmHg 50%
20:00 +28°C° 0 mm 2 mps 761 mmHg 56%
21:00 +26°C° 0 mm 2 mps 762 mmHg 61%
22:00 +26°C° 0 mm 2 mps 762 mmHg 62%
23:00 +26°C° 0 mm 1 mps 761 mmHg 62%

Day after tomorrow, 4 July, Saturday

Time Temperature Precipitation Wind Pressure Humidity
00:00 +25°C° 0 mm 1 mps 761 mmHg 62%
01:00 +25°C° 0 mm 1 mps 761 mmHg 61%
02:00 +25°C° 0 mm 1 mps 761 mmHg 59%
03:00 +24°C° 0 mm 1 mps 761 mmHg 58%
04:00 +25°C° 0 mm 1 mps 761 mmHg 54%
05:00 +26°C° 0 mm 1 mps 761 mmHg 50%
06:00 +27°C° 0 mm 1 mps 761 mmHg 46%
07:00 +29°C° 0 mm 1 mps 761 mmHg 40%
08:00 +31°C° 0 mm 1 mps 761 mmHg 35%
09:00 +33°C° 0 mm 1 mps 761 mmHg 29%
10:00 +35°C° 0 mm 2 mps 761 mmHg 28%
11:00 +35°C° 0 mm 3 mps 760 mmHg 26%
12:00 +36°C° 0 mm 4 mps 760 mmHg 25%
13:00 +36°C° 0 mm 4 mps 760 mmHg 25%
14:00 +36°C° 0 mm 5 mps 759 mmHg 26%
15:00 +35°C° 0 mm 5 mps 759 mmHg 26%
16:00 +34°C° 0 mm 5 mps 759 mmHg 31%
17:00 +33°C° 0 mm 5 mps 759 mmHg 37%
18:00 +30°C° 0 mm 4 mps 759 mmHg 42%
19:00 +29°C° 0 mm 4 mps 759 mmHg 47%
20:00 +28°C° 0 mm 3 mps 759 mmHg 52%
21:00 +27°C° 0 mm 2 mps 760 mmHg 57%
22:00 +27°C° 0 mm 2 mps 759 mmHg 56%
23:00 +26°C° 0 mm 2 mps 759 mmHg 56%

5 July, Sunday

Time Temperature Precipitation Wind Pressure Humidity
00:00 +26°C° 0 mm 2 mps 759 mmHg 56%
01:00 +26°C° 0 mm 2 mps 759 mmHg 56%
02:00 +25°C° 0 mm 2 mps 759 mmHg 56%
03:00 +25°C° 0 mm 2 mps 759 mmHg 57%
04:00 +26°C° 0 mm 2 mps 759 mmHg 55%
05:00 +27°C° 0 mm 1 mps 759 mmHg 54%
06:00 +28°C° 0 mm 1 mps 759 mmHg 52%
07:00 +29°C° 0 mm 1 mps 759 mmHg 44%
08:00 +31°C° 0 mm 2 mps 759 mmHg 36%
09:00 +34°C° 0 mm 2 mps 759 mmHg 29%
10:00 +35°C° 0 mm 3 mps 759 mmHg 28%
11:00 +35°C° 0 mm 3 mps 758 mmHg 27%
12:00 +36°C° 0 mm 4 mps 758 mmHg 26%
13:00 +36°C° 0 mm 4 mps 758 mmHg 27%
14:00 +36°C° 0 mm 5 mps 757 mmHg 28%
15:00 +35°C° 0 mm 5 mps 757 mmHg 29%
16:00 +35°C° 0 mm 4 mps 757 mmHg 30%
17:00 +34°C° 0 mm 3 mps 757 mmHg 32%
18:00 +33°C° 0 mm 3 mps 757 mmHg 33%
19:00 +30°C° 0 mm 3 mps 757 mmHg 36%
20:00 +29°C° 0 mm 3 mps 757 mmHg 40%
21:00 +28°C° 0 mm 3 mps 758 mmHg 43%
22:00 +27°C° 0 mm 2 mps 758 mmHg 46%
23:00 +27°C° 0 mm 2 mps 758 mmHg 50%

6 July, Monday

Time Temperature Precipitation Wind Pressure Humidity
00:00 +26°C° 0 mm 2 mps 758 mmHg 53%
01:00 +26°C° 0 mm 2 mps 757 mmHg 53%
02:00 +25°C° 0 mm 2 mps 757 mmHg 54%
03:00 +25°C° 0 mm 2 mps 757 mmHg 54%
04:00 +26°C° 0 mm 2 mps 757 mmHg 50%
05:00 +27°C° 0 mm 2 mps 757 mmHg 45%
06:00 +28°C° 0 mm 2 mps 757 mmHg 40%
07:00 +30°C° 0 mm 2 mps 757 mmHg 36%
08:00 +32°C° 0 mm 2 mps 757 mmHg 32%
09:00 +35°C° 0 mm 3 mps 757 mmHg 29%
10:00 +36°C° 0 mm 3 mps 757 mmHg 28%
11:00 +37°C° 0 mm 3 mps 757 mmHg 27%
12:00 +38°C° 0 mm 4 mps 757 mmHg 26%
13:00 +37°C° 0 mm 4 mps 757 mmHg 28%
14:00 +37°C° 0 mm 4 mps 756 mmHg 30%
15:00 +37°C° 0 mm 5 mps 756 mmHg 32%
16:00 +36°C° 0 mm 4 mps 756 mmHg 36%
17:00 +34°C° 0 mm 4 mps 756 mmHg 40%
18:00 +33°C° 0 mm 3 mps 756 mmHg 43%
19:00 +30°C° 0 mm 3 mps 757 mmHg 48%
20:00 +29°C° 0 mm 2 mps 757 mmHg 53%
21:00 +27°C° 0 mm 1 mps 757 mmHg 58%
22:00 +27°C° 0 mm 1 mps 757 mmHg 56%
23:00 +27°C° 0 mm 1 mps 757 mmHg 55%

7 July, Tuesday

Time Temperature Precipitation Wind Pressure Humidity
00:00 +27°C° 0 mm 1 mps 757 mmHg 53%
01:00 +26°C° 0 mm 1 mps 757 mmHg 54%
02:00 +26°C° 0 mm 1 mps 757 mmHg 55%
03:00 +24°C° 0 mm 0 mps 757 mmHg 56%
04:00 +27°C° 0 mm 1 mps 757 mmHg 52%
05:00 +28°C° 0 mm 2 mps 757 mmHg 47%
06:00 +30°C° 0 mm 2 mps 757 mmHg 43%
07:00 +31°C° 0 mm 2 mps 757 mmHg 40%
08:00 +34°C° 0 mm 3 mps 757 mmHg 37%
09:00 +35°C° 0 mm 3 mps 757 mmHg 34%
10:00 +36°C° 0 mm 3 mps 757 mmHg 32%
11:00 +37°C° 0 mm 4 mps 757 mmHg 30%
12:00 +38°C° 0 mm 4 mps 757 mmHg 28%
13:00 +39°C° 0 mm 5 mps 756 mmHg 29%
14:00 +39°C° 0 mm 5 mps 756 mmHg 29%
15:00 +38°C° 0 mm 6 mps 756 mmHg 29%
16:00 +36°C° 0 mm 5 mps 756 mmHg 32%
17:00 +35°C° 0 mm 4 mps 756 mmHg 34%
18:00 +34°C° 0 mm 3 mps 756 mmHg 36%
19:00 +31°C° 0 mm 3 mps 756 mmHg 43%
20:00 +30°C° 0 mm 2 mps 757 mmHg 49%
21:00 +28°C° 0 mm 2 mps 757 mmHg 55%
22:00 +27°C° 0 mm 2 mps 757 mmHg 55%
23:00 +27°C° 0 mm 2 mps 756 mmHg 56%
Show more